[[{"header":{"parameterUnit":"m.s-1","parameterCategory":1,"la1":30.2991,"la2":30.254,"lo1":-89.0895,"lo2":-89.0444,"dy":0.0017,"dx":0.0017,"nx":28,"ny":28,"refTime":"2023-08-02T21:00:00:Z","depth":0,"parameterNumber":2,"parameterNumberName":"U-component_of_WINDS"},"data":[0,0,0,0,0,0,0,0,0,0,0,0,0,0,0,0,0,0,0,0,0,0,0,0,0,0,0,0,0,0,0,0,0,0,0,0,0,0,0,0,0,0,0,0,0,0,0,0,0,0,0,0,0,0,0,0,0,0,0.6668,0.6669,0,0.6772,0.6773,0.6774,0.6819,0.6819,0.6819,0.6818,0.6924,0.6927,0.693,0,0,0,0,0,0,0,0,0,0,0,0,0,0.6508,0.651,0.6668,0.6669,0.6671,0.6772,0.6773,0.6775,0.6819,0.6819,0.6818,0.6818,0.6923,0.6926,0.693,0,0,0,0,0,0,0,0,0,0,0,0,0,0.6591,0.6511,0.6668,0.6705,0.6709,0.6771,0.6773,0.6775,0.6819,0.6819,0.6818,0.6818,0.6922,0.6926,0.693,0.6963,0,0,0.6944,0.6946,0,0,0,0,0,0,0,0,0.6586,0.6597,0.6698,0.6702,0.6707,0.6782,0.6755,0.6838,0.6819,0.6777,0.6818,0.6818,0.6877,0.6885,0.6905,0.6968,0.6972,0.6944,0.6947,0.6949,0.695,0,0,0,0,0,0,0,0.658,0.6592,0.6709,0.67,0.6705,0.6716,0.6728,0.6771,0.6827,0.6781,0.6784,0.6796,0.6879,0.6901,0.6908,0.6974,0.6944,0.6948,0.6951,0.6953,0.707,0.707,0,0,0,0,0,0,0.6568,0.6587,0.6706,0.6712,0.6645,0.6719,0.6732,0.6758,0.6827,0.6837,0.6796,0.6798,0.6893,0.6903,0.6912,0.6955,0.6949,0.6953,0.6956,0.7069,0.707,0.707,0,0,0,0,0,0,0.6565,0.6579,0.6702,0.6651,0.6667,0.6722,0.6751,0.6761,0.6782,0.6838,0.6849,0.6808,0.6893,0.6905,0.695,0.6959,0.6955,0.6959,0.7069,0.707,0.707,0.7041,0,0,0,0,0,0,0.656,0.6577,0.659,0.6651,0.667,0.6738,0.6752,0.6763,0.679,0.6793,0.6852,0.6861,0.6894,0.6943,0.6955,0.6965,0.6963,0.7068,0.7069,0.707,0.7042,0.7041,0.704,0,0,0,0,0,0.6554,0.6577,0.659,0.6604,0.6687,0.6739,0.675,0.6787,0.679,0.6804,0.684,0.686,0.6956,0.6947,0.6961,0.6973,0.7068,0.7069,0.707,0.7042,0.7041,0.704,0,0,0,0,0,0,0.6515,0.6586,0.6601,0.6645,0.6685,0.6746,0.6764,0.6784,0.6825,0.6826,0.687,0.6883,0.6924,0.6953,0.6942,0.7008,0.7014,0.7017,0.6988,0.6988,0.6987,0.6979,0.6966,0,0,0,0,0,0.6512,0.6548,0.6608,0.664,0.666,0.6709,0.6732,0.6758,0.6802,0.6819,0.6859,0.69,0.694,0.6965,0.7005,0.7046,0.706,0.7061,0.706,0.7059,0.7062,0.7086,0.7087,0.7074,0.7074,0.7074,0,0,0.6505,0.6548,0.6568,0.6634,0.6668,0.6705,0.6723,0.676,0.6788,0.6824,0.6869,0.69,0.6949,0.6992,0.7013,0.7018,0.7069,0.706,0.7059,0.7063,0.7087,0.7088,0.709,0.7074,0.7074,0.7074,0,0,0.6511,0.6547,0.6579,0.6613,0.6666,0.6698,0.6706,0.6764,0.6786,0.6832,0.686,0.6893,0.6961,0.6995,0.7021,0.7042,0.7061,0.7053,0.7049,0.7073,0.7074,0.7075,0.7082,0.7084,0.7056,0.7056,0.7056,0,0.6496,0.6552,0.6592,0.6629,0.6657,0.6693,0.6725,0.6756,0.6819,0.6837,0.6841,0.6928,0.6963,0.7015,0.702,0.704,0.705,0.7047,0.707,0.7072,0.7074,0.7081,0.7084,0.7055,0.7055,0.7055,0.7055,0,0.6531,0.657,0.6589,0.6649,0.668,0.6714,0.6759,0.6785,0.6808,0.6839,0.6886,0.693,0.698,0.6994,0.7016,0.7049,0.705,0.7062,0.7068,0.7073,0.7081,0.7084,0.7053,0.7053,0.7054,0.7054,0,0,0.6515,0.6598,0.6604,0.6633,0.6693,0.6724,0.676,0.6809,0.6831,0.6873,0.6904,0.6961,0.6972,0.7002,0.7028,0.7049,0.7062,0.7058,0.706,0.7057,0.7102,0.7093,0.7096,0.7076,0.7076,0.7077,0.7098,0,0.653,0.6596,0.6634,0.6685,0.6721,0.6756,0.6787,0.6828,0.6859,0.6894,0.6928,0.6968,0.6979,0.6998,0.7019,0.7056,0.7072,0.7055,0.7105,0.7107,0.7092,0.71,0.7091,0.7108,0.7101,0.7102,0.7102,0,0.6556,0.6598,0.6653,0.671,0.6727,0.6754,0.6803,0.6836,0.6883,0.6904,0.6938,0.6965,0.7004,0.7007,0.7062,0.705,0.7073,0.7094,0.7096,0.7102,0.7104,0.7106,0.7114,0.7117,0.7107,0.7107,0.7106,0,0.6539,0.661,0.6652,0.6675,0.6743,0.6761,0.6791,0.6837,0.6865,0.6907,0.6925,0.6971,0.6996,0.7031,0.707,0.7069,0.7121,0.7128,0.714,0.7139,0.7149,0.7148,0.7161,0.7163,0.7163,0.7163,0.7163,0,0.6552,0.6584,0.6645,0.6671,0.6708,0.6751,0.6786,0.6818,0.686,0.6892,0.6925,0.6955,0.7004,0.704,0.707,0.7111,0.7122,0.714,0.7148,0.7137,0.7135,0.7153,0.7153,0.7164,0.7164,0.7164,0.7164,0,0.6539,0.6582,0.663,0.6691,0.6707,0.6732,0.6784,0.681,0.6843,0.6884,0.6896,0.6947,0.6991,0.7033,0.7092,0.7112,0.7153,0.7163,0.7137,0.7142,0.7152,0.715,0.7177,0.7182,0.718,0.718,0.718,0,0.6544,0.657,0.6634,0.6659,0.6687,0.6726,0.6755,0.6798,0.6826,0.6882,0.6902,0.6948,0.6988,0.7056,0.7099,0.7144,0.7155,0.7162,0.7162,0.7151,0.7156,0.7154,0.7157,0.7161,0.716,0.716,0.716,0,0.6549,0.6569,0.6609,0.6657,0.669,0.673,0.677,0.6788,0.6839,0.6869,0.6915,0.6946,0.7006,0.7052,0.7102,0.7132,0.7154,0.716,0.7165,0.7154,0.7138,0.7147,0.7135,0.7159,0.7159,0.7159,0.7159,0.7159,0.6546,0.6571,0.662,0.6664,0.6699,0.6736,0.6764,0.6801,0.684,0.6893,0.6916,0.6962,0.7009,0.7079,0.7109,0.7146,0.7151,0.7158,0.716,0.7161,0.7159,0.7133,0.7155,0.7155,0.7155,0.7155,0.7155,0,0.6553,0.6587,0.6627,0.6683,0.6717,0.6736,0.6782,0.6809,0.685,0.6892,0.6931,0.6983,0.7028,0.7074,0.7122,0.7142,0.7154,0.7153,0.7152,0.7159,0.7152,0.7143,0.7143,0.7143,0.7143,0.7143,0.7143,0.7143,0.6561,0.6604,0.663,0.6691,0.6724,0.677,0.6795,0.6829,0.6863,0.6921,0.6959,0.6989,0.7033,0.7084,0.7126,0.7138,0.7154,0.715,0.7166,0.7158,0.7159,0.716,0.7151,0.7154,0.7154,0.717,0.717,0.717]},{"header":{"parameterUnit":"m.s-1","parameterCategory":1,"la1":30.2991,"la2":30.254,"lo1":-89.0895,"lo2":-89.0444,"dy":0.0017,"dx":0.0017,"nx":28,"ny":28,"refTime":"2023-08-02T21:00:00:Z","depth":0,"parameterNumber":3,"parameterNumberName":"V-component_of_WINDS"},"data":[0,0,0,0,0,0,0,0,0,0,0,0,0,0,0,0,0,0,0,0,0,0,0,0,0,0,0,0,0,0,0,0,0,0,0,0,0,0,0,0,0,0,0,0,0,0,0,0,0,0,0,0,0,0,0,0,0,0,3.3573,3.3573,0,3.3553,3.3553,3.3553,3.3525,3.3525,3.3524,3.3524,3.3502,3.3502,3.3502,0,0,0,0,0,0,0,0,0,0,0,0,0,3.3586,3.3586,3.3573,3.3573,3.3573,3.3553,3.3553,3.3553,3.3525,3.3525,3.3524,3.3523,3.3502,3.3502,3.3502,0,0,0,0,0,0,0,0,0,0,0,0,0,3.3575,3.3586,3.3573,3.3556,3.3555,3.3553,3.3553,3.3553,3.3525,3.3525,3.3524,3.3523,3.3503,3.3502,3.3502,3.3515,0,0,3.3502,3.3501,0,0,0,0,0,0,0,0,3.3576,3.3574,3.3559,3.3558,3.3556,3.3541,3.355,3.354,3.3525,3.3536,3.3524,3.3523,3.3516,3.3514,3.3512,3.3514,3.3513,3.3502,3.3501,3.3501,3.3501,0,0,0,0,0,0,0,3.3576,3.3575,3.3565,3.3559,3.3557,3.355,3.3547,3.3548,3.353,3.3535,3.3533,3.3531,3.3515,3.3513,3.3512,3.3513,3.3502,3.3501,3.3501,3.3501,3.3525,3.3526,0,0,0,0,0,0,3.358,3.3576,3.3566,3.3565,3.3564,3.355,3.3548,3.3546,3.353,3.3527,3.3532,3.353,3.3513,3.3512,3.3511,3.3525,3.3501,3.3501,3.3501,3.3524,3.3525,3.3526,0,0,0,0,0,0,3.358,3.3579,3.3567,3.357,3.3568,3.3551,3.355,3.3546,3.3544,3.3528,3.3524,3.3533,3.3513,3.3511,3.3514,3.3524,3.3501,3.3501,3.3523,3.3524,3.3525,3.3553,0,0,0,0,0,0,3.3581,3.3579,3.3584,3.357,3.3568,3.3571,3.355,3.3547,3.3544,3.3541,3.3528,3.3525,3.3512,3.3515,3.3514,3.3523,3.3501,3.3522,3.3524,3.3525,3.3551,3.3555,3.3558,0,0,0,0,0,3.3581,3.3593,3.3585,3.3584,3.3573,3.3571,3.357,3.3555,3.3545,3.355,3.3539,3.3525,3.3523,3.3515,3.3515,3.3523,3.3522,3.3523,3.3525,3.355,3.3554,3.3558,0,0,0,0,0,0,3.3608,3.359,3.3581,3.3588,3.3582,3.3567,3.3572,3.356,3.3556,3.3554,3.3535,3.3532,3.3538,3.3531,3.3523,3.3535,3.352,3.3522,3.3539,3.3544,3.3547,3.3548,3.3501,0,0,0,0,0,3.3615,3.3615,3.3599,3.3607,3.3604,3.3589,3.3588,3.3577,3.3569,3.3566,3.3556,3.3548,3.3546,3.3544,3.3541,3.3551,3.3547,3.3556,3.356,3.3563,3.3564,3.3568,3.3572,3.3531,3.3531,3.3531,0,0,3.3628,3.3619,3.362,3.3612,3.3606,3.3606,3.3587,3.3588,3.3588,3.3566,3.3568,3.3561,3.3551,3.3558,3.356,3.3552,3.3575,3.3565,3.3567,3.3567,3.3571,3.3574,3.3578,3.3532,3.3532,3.3532,0,0,3.3653,3.3646,3.3652,3.3646,3.3637,3.3627,3.3628,3.3615,3.3609,3.3612,3.3596,3.3595,3.3592,3.3586,3.3582,3.3606,3.3593,3.3606,3.3624,3.3628,3.3631,3.3634,3.3642,3.3646,3.3607,3.3607,3.3607,0,3.3671,3.3671,3.3656,3.3659,3.3656,3.3637,3.3642,3.3637,3.3627,3.3626,3.3617,3.3613,3.3605,3.361,3.3616,3.3614,3.3615,3.3607,3.3632,3.3635,3.3637,3.3645,3.3648,3.3609,3.3609,3.3609,3.3609,0,3.3694,3.3694,3.37,3.3692,3.3689,3.3693,3.3679,3.3679,3.3669,3.3659,3.3662,3.3653,3.3647,3.3648,3.3638,3.3652,3.3647,3.3636,3.362,3.3643,3.365,3.3653,3.3611,3.3611,3.361,3.361,0,0,3.3734,3.3718,3.372,3.3716,3.3705,3.3705,3.3708,3.3703,3.3703,3.3698,3.37,3.3698,3.3687,3.3683,3.3673,3.3677,3.3696,3.3665,3.3664,3.3671,3.371,3.3718,3.3722,3.3688,3.3689,3.3689,3.3711,0,3.3756,3.3761,3.3748,3.3756,3.3756,3.3739,3.3742,3.3735,3.3727,3.3726,3.3717,3.3715,3.3702,3.37,3.3703,3.3693,3.3704,3.3691,3.3689,3.3689,3.3691,3.3726,3.3734,3.3755,3.3714,3.3714,3.3714,0,3.3783,3.3779,3.3787,3.3775,3.3775,3.3778,3.3773,3.3772,3.3765,3.3758,3.3755,3.3742,3.3745,3.3731,3.3734,3.3726,3.3724,3.3719,3.372,3.3718,3.3703,3.3724,3.3762,3.3765,3.3719,3.3718,3.3718,0,3.381,3.3807,3.3811,3.3809,3.3796,3.3798,3.3793,3.3785,3.3783,3.3779,3.3777,3.3773,3.3771,3.3768,3.3755,3.3746,3.3759,3.3744,3.3754,3.3754,3.3757,3.3756,3.3793,3.3757,3.3757,3.3757,3.3757,0,3.3836,3.3842,3.3824,3.3826,3.3832,3.3818,3.3824,3.3817,3.381,3.3811,3.3795,3.3797,3.378,3.3779,3.3769,3.3773,3.3772,3.3767,3.3764,3.3768,3.3768,3.3766,3.3764,3.3758,3.3758,3.3758,3.3757,0,3.3867,3.3856,3.3859,3.3847,3.3845,3.3849,3.3839,3.3841,3.3832,3.3834,3.3833,3.3819,3.3818,3.3805,3.3801,3.3794,3.3801,3.3796,3.3804,3.3802,3.3812,3.3811,3.3848,3.3852,3.3814,3.3815,3.3815,0,3.3884,3.3888,3.3877,3.3877,3.3872,3.3872,3.387,3.3856,3.3855,3.3847,3.385,3.3848,3.3845,3.3843,3.3833,3.3829,3.3823,3.3836,3.3822,3.3826,3.3823,3.3822,3.3823,3.3839,3.384,3.384,3.384,0,3.3915,3.3909,3.3908,3.3904,3.3903,3.3899,3.3895,3.3895,3.388,3.3879,3.3878,3.3876,3.3872,3.3869,3.3864,3.3859,3.3847,3.3845,3.3847,3.385,3.3855,3.3852,3.3811,3.3844,3.3843,3.3843,3.3843,3.3843,3.3939,3.3942,3.3935,3.3933,3.3929,3.3925,3.3926,3.3918,3.3917,3.3913,3.3905,3.3904,3.3897,3.3889,3.3885,3.3884,3.3877,3.388,3.3881,3.3882,3.3884,3.3856,3.3883,3.3883,3.3883,3.3883,3.3883,0,3.3969,3.3964,3.3963,3.3957,3.3956,3.3946,3.3941,3.394,3.3941,3.3935,3.3933,3.3931,3.3929,3.3919,3.3916,3.3917,3.3912,3.3917,3.3916,3.3915,3.389,3.3889,3.3921,3.3921,3.3921,3.3921,3.3921,3.3921,3.3984,3.3988,3.3982,3.3984,3.3978,3.3978,3.3976,3.3973,3.3968,3.3967,3.3966,3.3959,3.3952,3.3948,3.3946,3.3943,3.3942,3.3949,3.3944,3.3921,3.3917,3.3913,3.3912,3.3949,3.3949,3.3969,3.3969,3.3969]}]]